www.pogodaiklimat.ru

Погода и климат >> Архив погоды >> Бангладеш >> Madaripur


ПОГОДА в Madaripur

  • Прогноз погоды в Madaripur
  • Монитор погоды в Madaripur
  • Климат города

АРХИВ ПОГОДЫ в Madaripur

Время (UTC), дата Ветер
(напр.,м/с)
 
Видим.   Явления Облачность Т
(С)
Тd
(С)
f
(%)
Тe
(С)
Тes
(С)
Комфортность P
(гПа)
Po
(гПа)
Тmin
(С)
Tmax
(С)
R
(мм)
R24
(мм)
S
(см)
03 8.08 штиль 0 7000 м 9/4 500 м
[Sc As trans]
+30.0 +27.0 84 +47 +52 опасность
перегрева
1003.2 1002.4 +26.3
06 8.08 ЮВ 1 7000 м {дождь} 10/5 450 м
[Sc As trans]
+29.5 +25.0 77 +43 +48 опасность
перегрева
1003.0 1002.2 1
12 8.08 штиль 0 5000 м 8/3 450 м
[Sc As trans]
+30.0 +25.0 75 +43 +43 опасность
перегрева
1000.9 1000.1 +32.5
15 8.08 штиль 0 6000 м 4/3 540 м
[Sc Ac trans]
+28.0 +25.0 84 +40 +40 очень
душно
1002.9 1002.1
18 8.08 штиль 0 6000 м 4/3 500 м
[Sc Ac trans]
+27.7 +27.0 96 +44 +44 опасность
перегрева
1004.0 1003.2
21 8.08 штиль 0 6000 м 5/4 500 м
[Sc Ac trans]
+27.5 +27.0 97 +43 +43 опасность
перегрева
1004.3 1003.6
00 9.08 штиль 0 7000 м 5/4 500 м
[Sc Ac trans]
+27.0 +26.0 94 +40 +41 очень
душно
1003.8 1003.0
03 9.08 штиль 0 8000 м 5/4 500 м
[Sc Ac trans]
+30.5 +26.0 77 +46 +54 опасность
перегрева
1005.7 1004.9 +26.6
06 9.08 штиль 0 8000 м 5/3 480 м
[Sc Ac trans]
+33.0 +25.0 63 +47 +64 опасность
перегрева
1004.7 1003.9
09 9.08 штиль 0 9000 м 4/1 500 м
[Sc Ac trans]
+33.0 +26.0 67 +49 +60 опасность
перегрева
1002.5 1001.7
12 9.08 штиль 0 5000 м 5/4 500 м
[Sc Ac trans]
+31.5 +27.0 77 +49 +49 опасность
перегрева
1001.7 1000.9 +33.8
15 9.08 штиль 0 4000 м ясно +29.5 +27.0 86 +46 +46 опасность
перегрева
1002.6 1001.8
18 9.08 штиль 0 4000 м ясно +29.0 +27.0 89 +46 +46 опасность
перегрева
1003.2 1002.4
21 9.08 штиль 0 4000 м ясно +27.8 +26.0 90 +42 +42 опасность
перегрева
1003.2 1002.4
00 10.08 штиль 0 7000 м ясно +27.4 +26.0 92 +41 +41 опасность
перегрева
1003.7 1002.9
03 10.08 штиль 0 7000 м 5/4 500 м
[Sc Ac trans]
+30.0 +27.0 84 +47 +56 опасность
перегрева
1004.1 1003.3 +26.8
06 10.08 штиль 0 8000 м 8/4 540 м
[Sc As trans]
+32.5 +27.0 73 +51 +61 опасность
перегрева
1003.7 1002.9
09 10.08 штиль 0 10 км 6/4 540 м
[Sc diur, vesp Ac trans]
+34.5 +27.0 65 +52 +60 опасность
перегрева
1001.0 1000.2
12 10.08 штиль 0 9000 м 5/3 540 м
[Sc Ac trans]
+31.8 +26.0 71 +47 +47 опасность
перегрева
1000.3 999.5 +35.5
15 10.08 штиль 0 4000 м ясно +31.0 +28.0 84 +51 +51 опасность
перегрева
1000.9 1000.1
18 10.08 штиль 0 4000 м ясно +30.4 +28.0 87 +50 +50 опасность
перегрева
1001.7 1000.9
21 10.08 штиль 0 4000 м ясно +27.8 +26.0 90 +42 +42 опасность
перегрева
1001.4 1000.6
00 11.08 штиль 0 7000 м 4/4 540 м
[Sc]
+27.4 +26.0 92 +41 +41 опасность
перегрева
1001.6 1000.8
03 11.08 штиль 0 8000 м 6/4 540 м
[Sc diur, vesp Ac trans]
+30.0 +27.0 84 +47 +55 опасность
перегрева
1001.5 1000.7 +26.8
06 11.08 штиль 0 9000 м 5/4 500 м
[Sc diur, vesp Ac trans]
+34.0 +25.0 59 +47 +63 опасность
перегрева
1001.0 1000.2
09 11.08 штиль 0 9000 м 5/4 500 м
[Sc diur, vesp Ac trans]
+32.6 +27.0 72 +50 +59 опасность
перегрева
998.3 997.6
12 11.08 штиль 0 6000 м 5/4 500 м
[Sc diur, vesp Ac trans]
+30.0 +27.0 84 +47 +47 опасность
перегрева
997.8 997.1 +34.8
15 11.08 штиль 0 6000 м 5/3 500 м
[Sc Ac trans]
+29.7 +27.0 85 +47 +47 опасность
перегрева
999.7 998.9
18 11.08 штиль 0 6000 м 4/3 540 м
[Sc Ac trans]
+28.9 +27.0 90 +46 +46 опасность
перегрева
1000.4 999.6
21 11.08 штиль 0 6000 м 4/3 540 м
[Sc Ac trans]
+28.5 +27.0 92 +45 +45 опасность
перегрева
999.5 998.7
00 12.08 штиль 0 7000 м 3/3 300 м
[Sc]
+28.0 +27.0 94 +44 +44 опасность
перегрева
999.3 1008.6
03 12.08 штиль 0 9000 м 5/4 540 м
[Sc diur, vesp Ac trans]
+31.0 +26.0 75 +46 +55 опасность
перегрева
1000.5 999.7 +27.3
06 12.08 штиль 0 9000 м 5/3 540 м
[Sc diur, vesp Ac trans]
+32.5 +26.0 69 +48 +65 опасность
перегрева
999.5 998.7
09 12.08 штиль 0 9000 м 6/4 500 м
[Sc diur, vesp Ac trans]
+31.8 +26.0 71 +47 +55 опасность
перегрева
997.6 996.9
12 12.08 штиль 0 6000 м 8/4 540 м
[Sc As trans]
+30.0 +27.0 84 +47 +47 опасность
перегрева
996.4 995.6 +33.8
15 12.08 штиль 0 4000 м ясно +29.0 +26.0 84 +44 +44 опасность
перегрева
999.5 998.7
18 12.08 штиль 0 4000 м ясно +28.3 +26.0 87 +42 +42 опасность
перегрева
999.5 998.7
21 12.08 штиль 0 4000 м 8/4 540 м
[Sc As trans]
+28.0 +26.0 89 +42 +42 опасность
перегрева
999.4 998.6
00 13.08 штиль 0 7000 м слабый дождь 10/4 500 м
[Sc As op]
+27.3 +26.0 93 +41 +41 опасность
перегрева
999.3 998.5 2
03 13.08 штиль 0 8000 м 8/4 540 м
[Sc As trans]
+30.0 +27.0 84 +47 +53 опасность
перегрева
999.5 998.7 +26.8
03 14.08 штиль 0 7000 м 6/4 500 м
[Sc diur, vesp Ac trans]
+30.0 +27.0 84 +47 +55 опасность
перегрева
999.3 998.5 +26.8
06 14.08 Ю 1 8000 м 5/3 500 м
[Sc Ac trans]
+33.0 +25.0 63 +47 +61 опасность
перегрева
998.6 997.9
09 14.08 штиль 0 8000 м 8/4 540 м
[Sc As trans]
+33.0 +26.0 67 +49 +54 опасность
перегрева
996.7 995.9
12 14.08 штиль 0 6000 м 8/4 540 м
[Sc As trans]
+31.5 +27.0 77 +49 +49 опасность
перегрева
995.9 995.1 +33.6
15 14.08 штиль 0 6000 м 5/4 540 м
[Sc Ac trans]
+30.0 +26.0 79 +45 +45 опасность
перегрева
999.2 998.4
18 14.08 штиль 0 6000 м 10/4 500 м
[Sc As op]
+29.0 +26.0 84 +44 +44 опасность
перегрева
1000.1 999.3
00 15.08 В 2 7000 м 6/4 500 м
[Sc Ac trans]
+28.0 +27.0 94 +44 +44 опасность
перегрева
999.4 998.6

 

Местоположение метеостанции Madaripur (Бангладеш): широта 23.17 долгота 90.18 высота над уровнем моря 13 м.

В архиве по умолчанию представлена погода в Madaripur за последнюю неделю. Архивные данные за месяц целиком и за предыдущие месяцы, начиная с января 2011 года, Вы можете получить, выбрав интересующий диапазон дат из раскрывающегося списка и нажав кнопку "Ввод!".


*Определитесь, кто Вы:
робот инопланетянин человек

Внимание! Время в таблицах - всемирное. Для получения местного времени необходимо прибавить поправку, которая в Madaripur равна 6.5 ч.

Смотрите также архив погоды в соседних городах и на ближайших метеорологических станциях:

Погода в Gopalganj Sadar (Бангладеш) (41 км)
Погода в Barisal (Бангладеш) (51 км)
Погода в Chandpur (Бангладеш) (54 км)
Погода в Faridpur (Бангладеш) (59 км)
Погода в Dhaka (Бангладеш) (70 км)
Погода в Bhola (Бангладеш) (73 км)
Погода в Khulna (Бангладеш) (79 км)
Погода в Mongla (Бангладеш) (94 км)
Погода в Patuakhali (Бангладеш) (95 км)
Погода в Maijdicourt (Бангладеш) (100 км)

Пояснения к столбцам:

Ветер - указаны скорость ветра в м/с - средняя за 10 мин, порывы в срок и между сроками (в фигурных скобках) и направление, откуда дует ветер: С - северный, СВ - северо-восточный, В - восточный, ЮВ - юго-восточный, Ю - южный, ЮЗ - юго-западный, З - западный, СЗ - северо-западный.
Видимость - горизонтальная дальность видимости в метрах или километрах. При видимости от 1 до 10 км при отсутствии осадков обычно наблюдается дымка, при ухудшении видимости до 1 км и менее - туман. В сухую погоду видимость может ухудшаться дымом, пылью или мглою.
Явления - указаны атмосферные явления, наблюдавшиеся в срок или в последний час перед сроком; фигурными скобками обозначены явления, наблюдавшиеся между сроками (за 1-3 часа до срока); квадратными скобками обозначены град или гололедные отложения с указанием их диаметра в мм.
Облачность - указаны через наклонную черту общая и нижняя облачность в баллах и высота нижней границы облаков в метрах; квадратными скобками обозначены формы облаков: Ci - перистые, Cs - перисто-слоистые, Cc - перисто-кучевые, Ac - высококучевые, As - высокослоистые, Sc - слоисто-кучевые, Ns - слоисто-дождевые, Cu - кучевые, Cb - кучево-дождевые. Подробнее классификацию облаков см. в Атласе облаков (PDF).
T - Температура воздуха - температура, измеренная на высоте 2 м над землей.
Td - Температура точки росы - температура, при понижении до которой содержащийся в воздухе водяной пар достигнет насыщения.
f - Относительная влажность воздуха - влажноcть воздуха, измеренная на высоте 2 м над землей.
Te - Эффективная температура - температура, которую ощущает одетый по сезону человек в тени. Характеристика душности погоды. При расчете учитывается влияние влажности воздуха и скорости ветра на теплоощущения человека.
Tes - Эффективная температура на солнце - температура, которую ощущает человек, с поправкой на солнечный нагрев. Характеристика знойности погоды. Зависит от высоты солнца над горизонтом, облачности и скорости ветра. Ночью, в пасмурную погоду, а также при ветре 12 м/с и более поправка равна нулю.
P - Атмосферное давление - приведенное к уровню моря атмосферное давление.
Po - Атмосферное давление - измеренное на уровне метеостанции атмосферное давление.
Tmin - Минимальная температура - минимум температуры воздуха на высоте 2 м над землей.
Tmax - Максимальная температура - максимум температуры воздуха на высоте 2 м над землей.
R - Количество осадков - Количество выпавших осадков за период времени, мм. При наведении курсора мыши на число - период времени, за который выпало указанное количество осадков.
R24 - Количество осадков - Количество выпавших осадков за 24 часа, мм.
S - Снежный покров - Высота снежного покрова, см. При наведении курсора мыши на число - состояние снежного покрова и степень покрытия местности в баллах.